Regional Weather Roundup
Issued by NWS Charleston, SC

Home | Current Version | Previous Version | Text Only | Print | Product List | Glossary On
Versions: 1 2 3 4 5 6 7 8 9 10 11 12 13 14 15 16 17 18 19 20 21 22 23 24 25 26 27 28 29 30 31 32 33 34 35 36 37 38 39 40 41 42 43 44 45 46 47 48 49 50
000
ASUS42 KCHS 110027
RWRCHS

REGIONAL WEATHER ROUNDUP
NATIONAL WEATHER SERVICE CHARLESTON SC
700 PM EST SAT DEC 10 2016

NOTE: "FAIR" INDICATES FEW OR NO CLOUDS BELOW 12,000 FEET WITH NO
SIGNIFICANT WEATHER AND/OR OBSTRUCTIONS TO VISIBILITY.

NOT ALL STATIONS ARE QUALITY CONTROLLED. USE DATA WITH CAUTION...
ESPECIALLY DEWPOINT OBSERVATIONS.

SCZ027-030-031-034>040-042>050-110100-
...SOUTHEAST SOUTH CAROLINA...

CITY           SKY/WX    TMP DP  RH WIND       PRES   REMARKS
N CHARLESTON   CLEAR     39  27  62 N3        30.49R
6HR MIN TEMP:  37; 6HR MAX TEMP:  52;

WATERFRONT PRK   N/A     47  29  49 NE8       30.47S
MOUNT PLEASANT FAIR      37  32  81 CALM      30.50R
JOHNS ISLAND   FAIR      37  30  75 CALM      30.49S
PINOPOLIS        N/A     46  25  42 NE7       30.42R
MONCKS CORNER  FAIR      36  28  75 CALM      30.50S
SUMMERVILLE    FAIR      36  30  80 CALM      30.50S
BEAUFORT MCAS  CLEAR     44  26  49 NE7       30.47S
6HR MIN TEMP:  43; 6HR MAX TEMP:  54;

BEAUFORT ARPT  FAIR      45  32  61 NE7       30.47S
HILTON HEAD IS CLEAR     46  28  49 N8        30.47S
WALTERBORO     CLEAR     41  27  56 NE5       30.49S
ALLENDALE      FAIR      39  28  65 CALM      30.47S

...SOUTHERN MIDLANDS AND PEE DEE...

CITY           SKY/WX    TMP DP  RH WIND       PRES   REMARKS
GEORGETOWN     NOT AVBL
KINGSTREE      FAIR      32  27  80 CALM      30.50S
ORANGEBURG     CLEAR     36  27  69 CALM      30.48S
6HR MIN TEMP:  36; 6HR MAX TEMP:  47;

BARNWELL       NOT AVBL
AIKEN          FAIR      32  25  74 E3        30.51R
MANNING        FAIR      32  25  74 CALM      30.50S
COLUMBIA       CLEAR     35  25  66 CALM      30.49R
6HR MIN TEMP:  35; 6HR MAX TEMP:  49;

SUMTER         CLEAR     38  20  48 CALM      30.48R
6HR MIN TEMP:  36; 6HR MAX TEMP:  47;

FLORENCE       CLEAR     35  24  64 CALM      30.51R
6HR MIN TEMP:  34; 6HR MAX TEMP:  46;

MYRTLE BEACH   CLEAR     34  23  64 N7        30.52  WCI  28
N MYRTLE BEACH CLEAR     33  27  78 CALM      30.51R
6HR MIN TEMP:  32; 6HR MAX TEMP:  47;


$$

GAZ063-065-086>088-099>101-113>116-118-119-134>141-150-110100-
...SOUTHEAST GEORGIA...

CITY           SKY/WX    TMP DP  RH WIND       PRES   REMARKS
SAVANNAH ARPT  CLEAR     43  24  47 NE7       30.46S
6HR MIN TEMP:  43; 6HR MAX TEMP:  55;

HUNTER AAF     CLEAR     45  30  55 E6        30.43S
6HR MIN TEMP:  45; 6HR MAX TEMP:  54; 6HR PCP: TRACE;

FORT STEWART   CLEAR     39  32  75 CALM      30.43R
6HR MIN TEMP:  39; 6HR MAX TEMP:  55;

STATESBORO     CLEAR     35  32  88 CALM      30.47R
SYLVANIA       CLEAR    N/A N/A N/A CALM      30.47S
CLAXTON        FAIR      37  34  87 CALM      30.46R

...CSRA...CENTRAL AND FAR SOUTHEAST GEORGIA...

CITY           SKY/WX    TMP DP  RH WIND       PRES   REMARKS
THOMSON        CLEAR     35  30  82 CALM      30.52R
AUGUSTA-BUSH   CLEAR     37  26  64 CALM      30.47R
6HR MIN TEMP:  36; 6HR MAX TEMP:  52;

AUGUSTA-DANIEL CLEAR     45  21  38 NE3       30.47R
SWAINSBORO     FAIR      39  30  70 E3        30.47R
VIDALIA        CLEAR     41  32  70 NE3       30.46R
EASTMAN        FAIR      37  19  47 CALM      30.48R
HAZLEHURST     FAIR      43  26  50 NE3       30.43S
ALMA           CLEAR     38  31  76 CALM      30.43R
6HR MIN TEMP:  38; 6HR MAX TEMP:  56;

WAYCROSS       CLEAR     43  36  75 E6        30.43S
JESUP          FAIR      45  39  81 CALM      30.45R
BAXLEY         FAIR      39  32  75 CALM      30.43S
BRUNSWICK      CLEAR     46  43  87 N5        30.44S
SAINT SIMONS   CLEAR     51  43  74 NE10      30.42F
6HR MIN TEMP:  50; 6HR MAX TEMP:  56;


$$

SCZ027-028-034-036>038-045-046-048>050-GAZ119-141-110100-
...LAKE AND SUPPLEMENTAL COASTAL OBSERVATIONS...

STATION/POSITION TIME  TEMP    WIND        PRES    WAVE   SWELL
                       AIR SEA DIR/SP/G            HT/PER HT/PER/DIR
                 (UTC) (F)     (DEG/KT/KT) (MB)    (FT/S) (FT/S/D)
WINYAH BAY       2330   38     330/  3     1032.0S
LAKE MURRAY      2350   41      CALM  /  2 1031.8R
ACE BASIN NERRS  2345   39        CALM     1032.0R
FORT PULASKI     0000   50 59   60/ 10/ 12 1031.5
SAPELO ISLAND    0000   47      30/  6     1031.0

$$

ANZ835-935-AMZ111-154-330-350-352-354-370-450-454-472-110100-
...C-MAN AND BUOY OBSERVATIONS...

STATION/POSITION TIME  TEMP    WIND        PRES    WAVE   SWELL
                       AIR SEA DIR/SP/G            HT/PER HT/PER/DIR
                 (UTC) (F)     (DEG/KT/KT) (MB)    (FT/S) (FT/S/D)
BUOY 41004       2350   51 73   20/ 12/ 16 1031.7R   3/ 5   2/ 70/ 9
BUOY 41008       2350   54 62   60/ 17/ 21 1029.7F   4/ 5
FOLLY BEACH CMAN 0000   48      20/ 11/ 12 1032.7R
CAPERS NEARSHORE 2308   48 59   60/  8/ 10 1031.7S
FRIPP NEARSHORE  0008   51 60   50/ 12/ 17 1031.3S


STATION/POSITION TIME  TEMP    WIND        PRES    WAVE   SWELL
                       AIR SEA DIR/SP/G            HT/PER HT/PER/DIR
                 (UTC) (F)     (DEG/KT/KT) (MB)    (FT/S) (FT/S/D)
5E ST. MARYS GA  0000      63                N/A     5/ 6
FRYING PAN BUOY  0010   48 72  360/ 10/ 16 1032.5
BUOY 41025       2350   44 77  330/ 12/ 17 1032.3R   4/ 9   3/ 60/ 9
CAPE LOOKOUT NC  0000   42     330/ 10/ 12 1032.6R
BUOY 41002       2350   61 73  360/ 10/ 16 1029.7R   4/ 9   3/ 50/ 9
BUOY 41010       NOT AVBL
ST AUGUSTINE FL  0000   60 64  360/ 22/ 24 1029.1F


$$



USA.gov is the U.S. government's official web portal to all federal, state and local government web resources and services.